This is the latest recevied weather packets stored in our database for station/object TG6YMD-19. If no packets are shown the sender has not sent any weather packets the latest 1 day(s).
| Time | Temp. | Humidity | Pressure | Rain* | Wind** | Luminosity | Snow |
|---|---|---|---|---|---|---|---|
| 1778077768 | 28.33° C | 74% | 1014 hPa | 0 mm | - | - | - |
| 1778076567 | 26.67° C | 78% | 1014 hPa | 0 mm | - | - | - |
| 1778074764 | 26.67° C | 78% | 1014 hPa | 0 mm | - | - | - |
| 1778073562 | 26.67° C | 78% | 1014 hPa | 0 mm | - | - | - |
| 1778071160 | 24.44° C | 88% | 1014 hPa | 0 mm | - | - | - |
| 1778069358 | 24.44° C | 88% | 1013 hPa | 0 mm | - | - | - |
| 1778068157 | 21.11° C | 89% | 1013 hPa | 0 mm | - | - | - |
| 1778066355 | 22.22° C | 89% | 1013 hPa | 0 mm | - | - | - |
| 1778064553 | 23.89° C | 89% | 1013 hPa | 0 mm | - | - | - |
| 1778063352 | 21.67° C | 88% | 1013 hPa | 0 mm | - | - | - |
| 1778062751 | 22.22° C | 88% | 1013 hPa | 0 mm | - | - | - |
| 1778061550 | 23.33° C | 88% | 1013 hPa | 0 mm | - | - | - |
| 1778060349 | 21.67° C | 86% | 1013 hPa | 0 mm | - | - | - |
| 1778059148 | 22.78° C | 86% | 1013 hPa | 0 mm | - | - | - |
| 1778058547 | 23.33° C | 86% | 1013 hPa | 0 mm | - | - | - |
| 1778057346 | 24.44° C | 86% | 1013 hPa | 0 mm | - | - | - |
| 1778056145 | 25.56° C | 86% | 1013 hPa | 0 mm | - | - | - |
| 1778055544 | 22.22° C | 84% | 1013 hPa | 0 mm | - | - | - |
| 1778054326 | 23.33° C | 84% | 1013 hPa | 0 mm | - | - | - |
| 1778053125 | 24.44° C | 84% | 1013 hPa | 0 mm | - | - | - |
| 1778052524 | 25° C | 84% | 1013 hPa | 0 mm | - | - | - |
| 1778051323 | 22.22° C | 83% | 1013 hPa | 0 mm | - | - | - |
| 1778050722 | 22.78° C | 83% | 1013 hPa | 0 mm | - | - | - |
| 1778049521 | 23.89° C | 83% | 1013 hPa | 0 mm | - | - | - |
| 1778048920 | 24.44° C | 83% | 1013 hPa | 0 mm | - | - | - |
* Rain latest hour (hover to see other rain measurements)
** Current wind speed in m/s (hover to see current wind gust speed)